FW5287 Weather Reports


time (UTC)temp
C
wind
direction
speed
KPH
gust
KPH
rain 1hr
cm
rain 24hr
cm
rain mn
cm
humidity
%
barometer
mb
20260906174553 23 360 3.2 9.7 0.00 0.00 0.00 87 1018.3
20260906173041 23 360 3.2 12.9 0.00 0.00 0.00 87 1018.6
20260906171541 23 120 3.2 12.9 0.00 0.00 0.00 87 1018.4
20260906170039 23 360 3.2 11.3 0.00 0.00 0.00 87 1018.6
20260906164536 23 97 3.2 9.7 0.00 0.00 0.00 87 1018.8
20260906163034 23 121 3.2 11.3 0.00 0.00 0.00 86 1018.6
20260906161532 22 360 1.6 12.9 0.00 0.00 0.00 87 1018.3
20260906160032 22 360 4.8 11.3 0.00 0.00 0.00 87 1018.0
20260906154530 22 143 4.8 14.5 0.00 0.00 0.00 88 1018.3
20260906153032 21 157 3.2 9.7 0.00 0.00 0.00 91 1018.3
20260906151517 20 360 3.2 9.7 0.00 0.00 0.00 92 1018.5
20260906150022 20 147 4.8 9.7 0.00 0.00 0.00 93 1018.7
20260906144515 20 144 3.2 12.9 0.00 0.00 0.00 93 1018.7
20260906143018 20 122 4.8 11.3 0.00 0.00 0.00 95 1018.6
20260906141514 19 150 3.2 11.3 0.00 0.00 0.00 95 1018.8
20260906140020 19 155 4.8 12.9 0.00 0.00 0.00 95 1018.9
20260906134511 19 132 3.2 9.7 0.00 0.00 0.00 95 1018.5
20260906133021 19 117 3.2 12.9 0.00 0.00 0.00 95 1018.3
20260906131512 18 102 4.8 14.5 0.00 0.00 0.00 95 1018.1
20260906130008 18 117 4.8 12.9 0.00 0.00 0.00 95 1017.8
20260906124506 18 124 3.2 9.7 0.00 0.03 0.00 95 1017.8
20260906123010 18 360 4.8 11.3 0.00 0.03 0.00 95 1017.7
20260906121502 18 360 3.2 12.9 0.00 0.03 0.00 95 1017.7
20260906114559 19 138 3.2 11.3 0.00 0.03 0.00 95 1017.3
20260906113100 19 143 1.6 8.0 0.00 0.03 0.00 95 1017.5
20260906111601 19 132 3.2 8.0 0.00 0.03 0.00 95 1017.2
20260906104554 19 360 3.2 12.9 0.00 0.03 0.00 95 1016.9
20260906103104 19 167 3.2 14.5 0.00 0.03 0.00 95 1016.9
20260906101554 19 167 4.8 12.9 0.00 0.03 0.00 95 1016.8
20260906100056 19 126 4.8 11.3 0.00 0.03 0.00 96 1016.8
20260906094550 19 144 1.6 6.4 0.00 0.03 0.00 95 1016.7
20260906093052 19 128 3.2 9.7 0.00 0.03 0.00 95 1016.4
20260906091549 19 360 1.6 11.3 0.00 0.03 0.00 95 1015.9
20260906090059 19 110 3.2 12.9 0.00 0.03 0.00 95 1016.0
20260906084549 19 127 3.2 9.7 0.00 0.03 0.00 95 1016.1
20260906083046 19 360 1.6 6.4 0.00 0.03 0.00 95 1016.1
20260906081552 19 108 1.6 8.0 0.00 0.03 0.00 95 1016.2
20260906080044 19 107 0.0 6.4 0.00 0.03 0.00 94 1016.1
20260906074542 19 118 1.6 6.4 0.00 0.03 0.00 94 1016.3
20260906073056 20 360 1.6 4.8 0.00 0.03 0.00 94 1016.3
20260906071540 20 102 1.6 6.4 0.00 0.03 0.00 94 1016.5
20260906070040 20 103 1.6 4.8 0.00 0.03 0.00 94 1016.5
20260906064537 20 360 1.6 6.4 0.00 0.03 0.00 94 1016.7
20260906063045 20 360 1.6 6.4 0.00 0.03 0.00 94 1016.6
20260906061534 20 115 3.2 6.4 0.00 0.03 0.00 94 1016.7
20260906060032 20 105 3.2 8.0 0.00 0.03 0.00 94 1016.7
20260906054533 20 360 1.6 8.0 0.00 0.03 0.00 94 1016.7
20260906053031 20 98 1.6 9.7 0.00 0.03 0.00 94 1016.7
20260906051549 20 360 1.6 6.4 0.00 0.03 0.00 94 1016.5
20260906050029 20 360 1.6 6.4 0.00 0.03 0.00 95 1016.6
20260906044527 20 106 1.6 3.2 0.00 0.03 0.03 94 1016.6
20260906043026 20 109 1.6 3.2 0.00 0.03 0.03 94 1016.7
20260906041525 20 110 0.0 4.8 0.00 0.03 0.03 94 1016.7
20260906040032 20 120 0.0 1.6 0.00 0.03 0.03 94 1016.6
20260906034529 20 120 0.0 3.2 0.00 0.03 0.03 94 1016.5
20260906033022 21 360 0.0 1.6 0.00 0.03 0.03 93 1016.2
20260906031529 21 120 0.0 1.6 0.00 0.03 0.03 93 1016.2
20260906030019 21 121 0.0 1.6 0.00 0.03 0.03 93 1016.1
20260906024520 21 121 0.0 3.2 0.00 0.03 0.03 93 1016.0
20260906023019 21 121 0.0 4.8 0.00 0.03 0.03 93 1015.8
20260906021519 22 119 0.0 4.8 0.00 0.03 0.03 93 1015.7
20260906020021 22 110 0.0 6.4 0.00 0.03 0.03 93 1015.6
20260906014526 22 101 1.6 6.4 0.00 0.03 0.03 93 1015.2
20260906013017 22 85 0.0 4.8 0.00 0.03 0.03 93 1015.0
20260906011516 22 90 0.0 0.0 0.00 0.03 0.03 92 1015.0
20260906010016 22 90 0.0 0.0 0.00 0.03 0.03 91 1014.7
20260906004515 22 89 0.0 0.0 0.00 0.03 0.03 91 1014.5
20260906003015 22 88 0.0 0.0 0.00 0.03 0.03 90 1014.2
20260906001514 23 92 0.0 0.0 0.00 0.03 0.03 90 1014.1
20260906000014 23 88 0.0 0.0 0.00 0.03 0.03 89 1014.0
20260905234513 23 88 0.0 4.8 0.00 0.03 0.03 90 1014.0
20260905233013 23 89 1.6 6.4 0.00 0.03 0.03 89 1014.0
20260905231522 23 360 1.6 11.3 0.00 0.03 0.03 88 1014.0
20260905230018 23 99 3.2 12.9 0.00 0.03 0.03 88 1013.7
20260905224511 24 109 3.2 11.3 0.00 0.03 0.03 88 1013.5
20260905223011 24 110 3.2 12.9 0.00 0.03 0.03 88 1013.6
20260905221511 24 360 3.2 8.0 0.00 0.03 0.03 89 1013.6
20260905220010 24 126 4.8 14.5 0.00 0.03 0.03 88 1013.6
20260905214509 24 98 4.8 14.5 0.00 0.03 0.03 88 1013.4
20260905213010 24 84 1.6 11.3 0.00 0.03 0.03 89 1013.6
20260905211509 23 105 3.2 9.7 0.00 0.03 0.03 89 1013.7
20260905210008 24 109 3.2 14.5 0.00 0.03 0.03 88 1013.7
20260905204506 24 83 3.2 12.9 0.00 0.03 0.03 88 1013.9
20260905203006 25 360 6.4 14.5 0.00 0.03 0.03 87 1014.2
20260905201506 25 78 6.4 16.1 0.00 0.03 0.03 87 1014.3
20260905200005 25 360 4.8 14.5 0.00 0.03 0.03 88 1014.1
20260905194504 25 360 3.2 14.5 0.00 0.03 0.03 87 1014.5
20260905193003 25 82 4.8 11.3 0.00 0.03 0.03 87 1014.7
20260905191600 25 360 1.6 6.4 0.00 0.03 0.03 88 1015.3
20260905190059 25 14 1.6 6.4 0.00 0.03 0.03 88 1015.7
20260905184600 23 92 3.2 12.9 0.00 0.03 0.03 94 1015.6
20260905183052 22 360 3.2 11.3 0.00 0.03 0.03 96 1015.6
20260905181549 22 360 1.6 8.0 0.00 0.03 0.03 96 1015.8
20260905180047 21 13 3.2 6.4 0.00 0.03 0.03 96 1016.3